When you browse on this site, cookies collect data to enhance your experience and personalize the content and advertising you see.
Visit our Privacy Policy to learn more. By continuing to use the site, you agree to this use of cookies and data.
  • în România
  • Lista ţărilor
  • Pe 7 zile
  • Temperatura apei
  • Hartă satelitară
  • Meteo pe hartă
  • Widget-uri
  • user-avatar
    Intrare

    Meteo pe oră la Benguela

    Astăzi, 17 Ianuarie, Joi

    Timp Temperatura Precipitaţii Vânt Presiune Umiditate
    00:00 +30°C° 0.1 mm 2 m/s 759 mmHg 51%
    01:00 +29°C° 0 mm 2 m/s 759 mmHg 55%
    02:00 +29°C° 0 mm 2 m/s 759 mmHg 57%
    03:00 +29°C° 0 mm 2 m/s 759 mmHg 59%
    04:00 +28°C° 0 mm 2 m/s 759 mmHg 61%
    05:00 +28°C° 0 mm 2 m/s 759 mmHg 61%
    06:00 +28°C° 0 mm 2 m/s 759 mmHg 62%
    07:00 +28°C° 0 mm 2 m/s 759 mmHg 62%
    08:00 +29°C° 0 mm 1 m/s 759 mmHg 61%
    09:00 +29°C° 0 mm 1 m/s 759 mmHg 59%
    10:00 +29°C° 0 mm 1 m/s 760 mmHg 58%
    11:00 +30°C° 0 mm 1 m/s 759 mmHg 56%
    12:00 +31°C° 0 mm 1 m/s 758 mmHg 54%
    13:00 +31°C° 0 mm 2 m/s 758 mmHg 52%
    14:00 +33°C° 0 mm 3 m/s 757 mmHg 48%
    15:00 +34°C° 0 mm 3 m/s 757 mmHg 43%
    16:00 +35°C° 0 mm 4 m/s 756 mmHg 39%
    17:00 +34°C° 0 mm 4 m/s 756 mmHg 45%
    18:00 +32°C° 0 mm 4 m/s 757 mmHg 50%
    19:00 +30°C° 0 mm 4 m/s 757 mmHg 56%
    20:00 +29°C° 0 mm 3 m/s 758 mmHg 59%
    21:00 +29°C° 0 mm 3 m/s 758 mmHg 63%
    22:00 +28°C° 0 mm 2 m/s 759 mmHg 67%
    23:00 +28°C° 0 mm 2 m/s 759 mmHg 68%

    Mâine, 18 Ianuarie, Vineri

    Timp Temperatura Precipitaţii Vânt Presiune Umiditate
    00:00 +28°C° 0 mm 1 m/s 759 mmHg 69%
    01:00 +27°C° 0 mm 1 m/s 759 mmHg 70%
    02:00 +27°C° 0 mm 1 m/s 759 mmHg 70%
    03:00 +27°C° 0 mm 1 m/s 758 mmHg 69%
    04:00 +27°C° 0 mm 1 m/s 758 mmHg 68%
    05:00 +27°C° 0 mm 1 m/s 758 mmHg 67%
    06:00 +28°C° 0 mm 1 m/s 759 mmHg 65%
    07:00 +28°C° 0 mm 1 m/s 759 mmHg 64%
    08:00 +29°C° 0 mm 1 m/s 759 mmHg 58%
    09:00 +30°C° 0 mm 1 m/s 759 mmHg 51%
    10:00 +31°C° 0 mm 1 m/s 759 mmHg 45%
    11:00 +34°C° 0 mm 2 m/s 759 mmHg 43%
    12:00 +35°C° 0 mm 4 m/s 758 mmHg 41%
    13:00 +36°C° 0 mm 5 m/s 758 mmHg 38%
    14:00 +35°C° 0 mm 5 m/s 757 mmHg 43%
    15:00 +34°C° 0 mm 5 m/s 757 mmHg 47%
    16:00 +33°C° 0 mm 6 m/s 756 mmHg 51%
    17:00 +32°C° 0 mm 5 m/s 757 mmHg 56%
    18:00 +30°C° 0 mm 4 m/s 757 mmHg 62%
    19:00 +28°C° 0 mm 3 m/s 758 mmHg 67%
    20:00 +28°C° 0 mm 3 m/s 759 mmHg 68%
    21:00 +28°C° 0 mm 2 m/s 759 mmHg 70%
    22:00 +28°C° 0 mm 2 m/s 760 mmHg 71%
    23:00 +27°C° 0 mm 1 m/s 760 mmHg 71%

    Poimâine, 19 Ianuarie, Sâmbătă

    Timp Temperatura Precipitaţii Vânt Presiune Umiditate
    00:00 +27°C° 0 mm 1 m/s 760 mmHg 71%
    01:00 +27°C° 0 mm 1 m/s 760 mmHg 72%
    02:00 +27°C° 0 mm 1 m/s 759 mmHg 73%
    03:00 +27°C° 0 mm 1 m/s 759 mmHg 74%
    04:00 +26°C° 0 mm 1 m/s 759 mmHg 76%
    05:00 +26°C° 0 mm 1 m/s 759 mmHg 76%
    06:00 +27°C° 0 mm 1 m/s 760 mmHg 76%
    07:00 +27°C° 0 mm 1 m/s 760 mmHg 76%
    08:00 +28°C° 0 mm 1 m/s 760 mmHg 70%
    09:00 +29°C° 0 mm 1 m/s 760 mmHg 64%
    10:00 +30°C° 0 mm 1 m/s 760 mmHg 58%
    11:00 +31°C° 0 mm 2 m/s 760 mmHg 57%
    12:00 +31°C° 0 mm 3 m/s 759 mmHg 56%
    13:00 +32°C° 0 mm 4 m/s 758 mmHg 55%
    14:00 +32°C° 0 mm 4 m/s 758 mmHg 57%
    15:00 +32°C° 0 mm 4 m/s 757 mmHg 59%
    16:00 +32°C° 0 mm 4 m/s 757 mmHg 60%
    17:00 +30°C° 0 mm 3 m/s 757 mmHg 63%
    18:00 +29°C° 0 mm 3 m/s 758 mmHg 67%
    19:00 +29°C° 0 mm 3 m/s 758 mmHg 70%
    20:00 +28°C° 0 mm 2 m/s 759 mmHg 72%
    21:00 +28°C° 0 mm 2 m/s 759 mmHg 74%
    22:00 +27°C° 0 mm 2 m/s 760 mmHg 76%
    23:00 +27°C° 0 mm 1 m/s 760 mmHg 77%

    20 Ianuarie, Duminică

    Timp Temperatura Precipitaţii Vânt Presiune Umiditate
    00:00 +27°C° 0 mm 1 m/s 759 mmHg 77%
    01:00 +27°C° 0 mm 1 m/s 759 mmHg 78%
    02:00 +27°C° 0 mm 1 m/s 759 mmHg 77%
    03:00 +27°C° 0 mm 1 m/s 759 mmHg 76%
    04:00 +25°C° 0 mm 0 m/s 759 mmHg 76%
    05:00 +25°C° 0 mm 0 m/s 759 mmHg 75%
    06:00 +27°C° 0 mm 1 m/s 760 mmHg 75%
    07:00 +28°C° 0 mm 1 m/s 760 mmHg 74%
    08:00 +29°C° 0 mm 1 m/s 760 mmHg 67%
    09:00 +30°C° 0 mm 1 m/s 760 mmHg 60%
    10:00 +31°C° 0 mm 2 m/s 760 mmHg 53%
    11:00 +33°C° 0 mm 3 m/s 760 mmHg 50%
    12:00 +34°C° 0 mm 3 m/s 759 mmHg 47%
    13:00 +35°C° 0 mm 4 m/s 758 mmHg 44%
    14:00 +35°C° 0 mm 4 m/s 758 mmHg 46%
    15:00 +34°C° 0 mm 4 m/s 758 mmHg 48%
    16:00 +33°C° 0 mm 4 m/s 757 mmHg 51%
    17:00 +32°C° 0 mm 4 m/s 758 mmHg 57%
    18:00 +30°C° 0 mm 3 m/s 759 mmHg 63%
    19:00 +29°C° 0 mm 3 m/s 759 mmHg 69%
    20:00 +29°C° 0 mm 3 m/s 760 mmHg 71%
    21:00 +28°C° 0 mm 2 m/s 760 mmHg 73%
    22:00 +28°C° 0 mm 2 m/s 761 mmHg 75%
    23:00 +28°C° 0 mm 2 m/s 761 mmHg 76%

    21 Ianuarie, Luni

    Timp Temperatura Precipitaţii Vânt Presiune Umiditate
    00:00 +28°C° 0 mm 2 m/s 760 mmHg 77%
    01:00 +28°C° 0 mm 2 m/s 760 mmHg 77%
    02:00 +28°C° 0.1 mm 1 m/s 760 mmHg 77%
    03:00 +27°C° 0.1 mm 1 m/s 759 mmHg 78%
    04:00 +27°C° 0.1 mm 1 m/s 759 mmHg 78%
    05:00 +28°C° 0.1 mm 1 m/s 759 mmHg 77%
    06:00 +28°C° 0.1 mm 1 m/s 760 mmHg 77%
    07:00 +28°C° 0.1 mm 1 m/s 760 mmHg 76%
    08:00 +29°C° 0 mm 1 m/s 760 mmHg 68%
    09:00 +31°C° 0 mm 1 m/s 760 mmHg 60%
    10:00 +32°C° 0 mm 1 m/s 760 mmHg 51%
    11:00 +34°C° 0 mm 3 m/s 760 mmHg 49%
    12:00 +35°C° 0 mm 4 m/s 759 mmHg 46%
    13:00 +36°C° 0 mm 5 m/s 758 mmHg 44%
    14:00 +35°C° 0 mm 5 m/s 758 mmHg 47%
    15:00 +35°C° 0 mm 5 m/s 757 mmHg 50%
    16:00 +34°C° 0 mm 5 m/s 757 mmHg 53%
    17:00 +33°C° 0.3 mm 4 m/s 757 mmHg 58%
    18:00 +30°C° 0.3 mm 3 m/s 758 mmHg 63%
    19:00 +29°C° 0.3 mm 2 m/s 758 mmHg 68%
    20:00 +29°C° 0.3 mm 2 m/s 758 mmHg 70%
    21:00 +29°C° 0.3 mm 2 m/s 759 mmHg 71%
    22:00 +28°C° 0.3 mm 2 m/s 759 mmHg 73%
    23:00 +28°C° 0.2 mm 2 m/s 759 mmHg 73%

    22 Ianuarie, Marţi

    Timp Temperatura Precipitaţii Vânt Presiune Umiditate
    00:00 +28°C° 0.2 mm 2 m/s 759 mmHg 74%
    01:00 +28°C° 0.2 mm 2 m/s 759 mmHg 74%
    02:00 +27°C° 0.2 mm 1 m/s 759 mmHg 75%
    03:00 +27°C° 0.2 mm 1 m/s 758 mmHg 76%
    04:00 +27°C° 0.2 mm 1 m/s 758 mmHg 77%
    05:00 +27°C° 0 mm 1 m/s 759 mmHg 77%
    06:00 +25°C° 0 mm 0 m/s 759 mmHg 76%
    07:00 +25°C° 0 mm 0 m/s 759 mmHg 75%
    08:00 +28°C° 0.2 mm 1 m/s 760 mmHg 73%
    09:00 +29°C° 0.2 mm 1 m/s 760 mmHg 70%
    10:00 +29°C° 0.2 mm 1 m/s 760 mmHg 68%
    11:00 +30°C° 0 mm 2 m/s 759 mmHg 63%
    12:00 +33°C° 0 mm 3 m/s 758 mmHg 57%
    13:00 +34°C° 0 mm 4 m/s 758 mmHg 52%
    14:00 +33°C° 0 mm 4 m/s 757 mmHg 56%
    15:00 +32°C° 0 mm 4 m/s 757 mmHg 59%
    16:00 +32°C° 0 mm 4 m/s 756 mmHg 62%
    17:00 +30°C° 0 mm 4 m/s 757 mmHg 65%
    18:00 +29°C° 0 mm 4 m/s 757 mmHg 68%
    19:00 +29°C° 0 mm 3 m/s 758 mmHg 70%
    20:00 +28°C° 0 mm 3 m/s 758 mmHg 72%
    21:00 +28°C° 0 mm 2 m/s 759 mmHg 74%
    22:00 +28°C° 0 mm 2 m/s 759 mmHg 75%
    23:00 +28°C° 0.1 mm 2 m/s 759 mmHg 76%
    Arată mai mult